CW6018 Weather Reports


time (UTC)temp
C
wind
direction
speed
KPH
gust
KPH
rain 1hr
cm
rain 24hr
cm
rain mn
cm
humidity
%
barometer
mb
20260505203419 7 203 8.0 11.3 0.00 0.00 0.00 69 1010.6
20260505202419 7 203 8.0 11.3 0.00 0.00 0.00 70 1010.6
20260505201419 7 203 9.7 12.9 0.00 0.00 0.00 68 1010.6
20260505200418 7 203 8.0 11.3 0.00 0.00 0.00 68 1010.6
20260505195419 7 248 9.7 11.3 0.00 0.00 0.00 68 1010.6
20260505194418 7 203 4.8 8.0 0.00 0.00 0.00 67 1010.6
20260505193418 7 248 9.7 12.9 0.00 0.00 0.00 66 1010.5
20260505192418 7 203 9.7 14.5 0.00 0.00 0.00 65 1010.4
20260505191418 7 203 8.0 14.5 0.00 0.00 0.00 65 1010.5
20260505190419 7 203 11.3 16.1 0.00 0.00 0.00 63 1010.4
20260505185418 8 248 12.9 16.1 0.00 0.00 0.00 63 1010.3
20260505184418 8 203 14.5 17.7 0.00 0.00 0.00 61 1010.2
20260505183418 8 225 14.5 17.7 0.00 0.00 0.00 60 1010.2
20260505182418 8 248 12.9 16.1 0.00 0.00 0.00 60 1010.2
20260505181419 8 225 16.1 19.3 0.00 0.00 0.00 58 1010.2
20260505180418 8 248 9.7 11.3 0.00 0.00 0.00 57 1010.3
20260505175418 8 248 17.7 20.9 0.00 0.00 0.00 55 1010.3
20260505174418 8 248 16.1 20.9 0.00 0.00 0.00 57 1010.2
20260505173418 8 225 14.5 19.3 0.00 0.00 0.00 55 1010.3
20260505172438 8 248 17.7 20.9 0.00 0.00 0.00 54 1010.3
20260505171420 8 248 19.3 22.5 0.00 0.00 0.00 56 1010.2
20260505170420 8 203 16.1 19.3 0.00 0.00 0.00 54 1010.2
20260505165440 9 248 20.9 22.5 0.00 0.00 0.00 51 1010.2
20260505164419 9 248 16.1 19.3 0.00 0.00 0.00 49 1010.3
20260505163420 10 270 16.1 22.5 0.00 0.00 0.00 51 1010.3
20260505162419 9 248 19.3 22.5 0.00 0.00 0.00 52 1010.4
20260505161420 10 248 17.7 22.5 0.00 0.00 0.00 50 1010.4
20260505160439 9 270 16.1 22.5 0.00 0.00 0.00 52 1010.3
20260505152419 9 248 14.5 20.9 0.00 0.00 0.00 48 1010.4
20260505151419 9 270 14.5 19.3 0.00 0.00 0.00 46 1010.4
20260505150419 10 248 17.7 22.5 0.00 0.00 0.00 46 1010.4
20260505140439 12 293 14.5 19.3 0.00 0.00 0.00 40 1010.4
20260505124419 11 270 14.5 19.3 0.00 0.00 0.00 41 1010.5
20260505123438 11 293 19.3 24.1 0.00 0.00 0.00 39 1010.6
20260505122438 11 293 16.1 17.7 0.00 0.00 0.00 40 1010.7
20260505121418 11 270 17.7 25.7 0.00 0.00 0.00 41 1010.6
20260505120418 11 293 22.5 25.7 0.00 0.00 0.00 41 1010.7
20260505115418 11 293 19.3 22.5 0.00 0.00 0.00 40 1010.6
20260505114418 11 293 11.3 16.1 0.00 0.00 0.00 43 1010.6
20260505113438 11 293 20.9 24.1 0.00 0.00 0.00 44 1010.6
20260505112418 11 293 16.1 17.7 0.00 0.00 0.00 44 1010.7
20260505111420 11 293 17.7 22.5 0.00 0.00 0.00 43 1010.7
20260505110419 11 315 14.5 19.3 0.00 0.00 0.00 44 1010.7
20260505101440 11 315 16.1 20.9 0.00 0.00 0.00 47 1010.4
20260505100420 11 315 19.3 20.9 0.00 0.00 0.00 44 1010.3
20260505095500 11 293 16.1 20.9 0.00 0.00 0.00 44 1010.3
20260505094419 11 293 12.9 20.9 0.00 0.00 0.00 45 1010.3
20260505093419 11 293 17.7 20.9 0.00 0.00 0.00 45 1010.3
20260505092420 10 293 22.5 24.1 0.00 0.00 0.00 45 1010.2
20260505091420 11 315 17.7 24.1 0.00 0.00 0.00 43 1010.3
20260505090419 11 315 20.9 24.1 0.00 0.00 0.00 44 1010.3
20260505085419 11 293 12.9 17.7 0.00 0.00 0.00 44 1010.1
20260505084439 10 315 16.1 20.9 0.00 0.00 0.00 46 1009.9
20260505083419 10 293 16.1 22.5 0.00 0.00 0.00 45 1009.9
20260505082439 10 315 11.3 17.7 0.00 0.00 0.00 46 1009.8
20260505081419 10 315 20.9 22.5 0.00 0.00 0.00 47 1009.7
20260505080419 10 315 19.3 24.1 0.00 0.00 0.00 48 1009.6
20260505075419 9 315 19.3 20.9 0.00 0.00 0.00 48 1009.5
20260505074419 9 315 19.3 22.5 0.00 0.00 0.00 49 1009.4
20260505073419 8 315 17.7 19.3 0.00 0.00 0.00 50 1009.4
20260505072419 8 338 20.9 22.5 0.00 0.00 0.00 50 1009.4
20260505071419 8 338 24.1 27.4 0.00 0.00 0.00 52 1009.4
20260505070438 8 0 24.1 29.0 0.00 0.00 0.00 52 1009.4
20260505065419 7 338 19.3 20.9 0.00 0.00 0.00 52 1009.4
20260505064418 7 315 22.5 30.6 0.00 0.00 0.00 53 1009.3
20260505063419 7 338 24.1 29.0 0.00 0.00 0.00 52 1009.1
20260505062438 7 315 25.7 29.0 0.00 0.00 0.00 54 1009.1
20260505061418 7 315 22.5 25.7 0.00 0.00 0.00 52 1009.1
20260505060418 7 338 20.9 25.7 0.00 0.00 0.00 54 1009.1
20260505055418 6 338 25.7 29.0 0.00 0.00 0.00 55 1009.1
20260505054418 6 315 27.4 32.2 0.00 0.00 0.00 55 1008.9
20260505053418 6 338 25.7 29.0 0.00 0.00 0.00 56 1008.9
20260505052420 6 315 25.7 30.6 0.00 0.00 0.00 54 1008.7
20260505051418 6 315 27.4 32.2 0.00 0.00 0.00 56 1008.7
20260505050440 6 315 29.0 32.2 0.00 0.00 0.00 57 1008.6
20260505041419 6 315 25.7 30.6 0.00 0.00 0.00 58 1008.3
20260505040420 6 338 27.4 33.8 0.00 0.00 0.00 63 1008.1
20260505035420 6 315 27.4 30.6 0.00 0.00 0.00 61 1007.9
20260505034440 6 338 29.0 33.8 0.00 0.00 0.00 54 1007.8
20260505033419 6 338 33.8 38.6 0.00 0.00 0.00 58 1007.8
20260505032420 6 315 32.2 37.0 0.00 0.00 0.00 63 1007.8
20260505031419 6 315 29.0 33.8 0.00 0.00 0.00 66 1007.8
20260505030419 6 0 29.0 32.2 0.00 0.00 0.00 65 1007.8
20260505025419 6 338 24.1 29.0 0.00 0.00 0.00 65 1007.8
20260505024419 6 0 27.4 32.2 0.00 0.00 0.00 64 1007.7
20260505023419 6 338 27.4 29.0 0.00 0.00 0.00 61 1007.6
20260505022439 6 315 20.9 25.7 0.00 0.00 0.00 64 1007.6
20260505021418 7 0 22.5 24.1 0.00 0.00 0.00 64 1007.6
20260505020419 7 315 25.7 29.0 0.00 0.00 0.00 66 1007.5
20260505015418 7 315 29.0 32.2 0.00 0.00 0.00 65 1007.5
20260505014419 7 315 27.4 33.8 0.00 0.00 0.00 65 1007.4
20260505013419 7 315 30.6 35.4 0.00 0.00 0.00 66 1007.4
20260505012418 7 315 33.8 40.2 0.00 0.00 0.00 63 1007.3
20260505011418 7 315 33.8 38.6 0.00 0.00 0.00 65 1007.2
20260505010418 7 315 35.4 40.2 0.00 0.00 0.00 67 1007.2
20260505005418 8 315 33.8 40.2 0.00 0.00 0.00 69 1007.1
20260505004459 8 315 30.6 40.2 0.00 0.00 0.00 68 1007.1
20260505003418 8 315 37.0 45.1 0.00 0.00 0.00 71 1006.9
20260505002418 8 315 35.4 41.8 0.00 0.00 0.00 72 1006.7
20260505001418 8 0 35.4 45.1 0.00 0.00 0.00 74 1006.7
20260505000420 8 0 33.8 43.5 0.00 0.00 0.00 73 1006.6
20260504235418 8 293 40.2 45.1 0.00 0.00 0.00 73 1006.7
20260504234438 8 0 43.5 53.1 0.00 0.00 0.00 74 1006.5
20260504233418 8 0 45.1 49.9 0.00 0.00 0.00 73 1006.4
20260504232440 8 0 37.0 51.5 0.00 0.00 0.00 79 1006.6
20260504231438 9 0 38.6 49.9 0.00 0.00 0.00 81 1006.6
20260504230420 9 0 40.2 48.3 0.00 0.00 0.00 81 1006.4
20260504225440 9 0 38.6 46.7 0.00 0.00 0.00 81 1006.3
20260504224420 9 0 45.1 51.5 0.00 0.00 0.00 81 1006.3
20260504223419 9 0 41.8 53.1 0.00 0.00 0.00 81 1006.4
20260504222420 9 0 45.1 53.1 0.00 0.00 0.00 81 1006.3
20260504221439 9 0 38.6 45.1 0.00 0.00 0.00 81 1006.4
20260504220440 9 0 40.2 53.1 0.00 0.00 0.00 81 1006.3
20260504215418 9 0 40.2 51.5 0.00 0.00 0.00 81 1006.1
20260504214418 9 0 38.6 46.7 0.00 0.00 0.00 81 1006.1
20260504213438 9 0 38.6 46.7 0.00 0.00 0.00 81 1006.2
20260504212418 9 0 35.4 46.7 0.00 0.00 0.00 81 1006.2
20260504211420 9 0 41.8 53.1 0.00 0.00 0.00 82 1006.1
20260504210420 10 0 41.8 51.5 0.00 0.00 0.00 82 1006.1
20260504205420 10 0 35.4 45.1 0.00 0.00 0.00 81 1006.0
20260504204440 10 0 35.4 49.9 0.00 0.00 0.00 81 1006.1